Ottumwa, IA

5:16 PM CDT on March 25, 2017 (GMT -0500)
Ottumwa Industrial

Weather History for KOTM - September, 2013

Change the Weather History Date:

Sunday, September 15, 2013

  Actual Average Record
Temperature  
Mean Temperature 62 °F 65 °F  
Max Temperature 70 °F 77 °F 99 °F (1939)
Min Temperature 53 °F 53 °F 32 °F (2007)
Degree Days  
Heating Degree Days 3 3  
Month to date heating degree days 14 27  
Since 1 July heating degree days 30 38  
Cooling Degree Days 0 3  
Month to date cooling degree days 126 66  
Year to date cooling degree days 941 900  
Growing Degree Days 12 (Base 50)    
Moisture  
Dew Point 56 °F    
Average Humidity 75    
Maximum Humidity 93    
Minimum Humidity 56    
Precipitation  
Precipitation 0.13 in 0.12 in 2.80 in (1926)
Month to date precipitation 0.18 2.01  
Year to date precipitation 28.72 28.71  
Sea Level Pressure  
Sea Level Pressure 30.01 in    
Wind  
Wind Speed 9 mph (WNW)    
Max Wind Speed 17 mph    
Max Gust Speed 21 mph    
Visibility 9 miles    
Events Rain    
T = Trace of Precipitation, MM = Missing Value Source: NWS Daily Summary

Daily Weather History Graph

Daily Weather History Graph

Search for Another Location

Airport or City:

Trip Planner

Search our weather history database for the weather conditions in past years. The results will help you decide how hot, cold, wet, or windy it might be!

Date:

Astronomy

Sep. 15, 2013 Rise Set
Actual Time 6:50 AM CDT 7:18 PM CDT
Civil Twilight 6:22 AM CDT 7:46 PM CDT
Nautical Twilight 5:50 AM CDT 8:18 PM CDT
Astronomical Twilight 5:16 AM CDT 8:51 PM CDT
Moon 4:47 PM CDT (9/15) 2:27 AM CDT (9/15)
Length of Visible Light 13h 23m
Length of Day
12h 27m
Waxing Gibbous, 82% of the Moon is Illuminated
Sep 15
Waxing Gibbous
Sep 19
Full
Sep 26
Last Quarter
Oct 4
New
Oct 11
First Quarter

Hourly Weather History & Observations

Time (CDT) Temp. Dew Point Humidity Pressure Visibility Wind Dir Wind Speed Gust Speed Precip Events Conditions
12:53 AM 63.0 °F 46.0 °F 54% 29.95 in 10.0 mi South 9.2 mph - N/A   Clear
1:53 AM 63.0 °F 46.0 °F 54% 29.94 in 10.0 mi South 9.2 mph - N/A   Mostly Cloudy
2:53 AM 63.0 °F 46.0 °F 54% 29.93 in 10.0 mi South 9.2 mph - N/A   Scattered Clouds
3:53 AM 63.0 °F 46.9 °F 56% 29.91 in 10.0 mi South 11.5 mph - N/A   Clear
4:53 AM 63.0 °F 48.0 °F 58% 29.89 in 10.0 mi South 10.4 mph - N/A   Scattered Clouds
5:53 AM 64.0 °F 48.0 °F 56% 29.90 in 10.0 mi South 10.4 mph - N/A   Overcast
6:53 AM 61.0 °F 52.0 °F 72% 29.92 in 10.0 mi SSW 9.2 mph - 0.01 in Rain Light Rain
7:53 AM 60.1 °F 54.0 °F 80% 29.93 in 10.0 mi SW 10.4 mph - 0.00 in Rain Light Rain
8:53 AM 59.0 °F 55.9 °F 90% 29.92 in 8.0 mi SSW 8.1 mph - 0.05 in Rain Light Rain
9:53 AM 63.0 °F 57.9 °F 84% 29.92 in 10.0 mi SW 11.5 mph - 0.00 in   Mostly Cloudy
10:43 AM 62.6 °F 57.2 °F 82% 29.96 in 10.0 mi WSW 12.7 mph - N/A   Overcast
10:53 AM 63.0 °F 57.9 °F 84% 29.96 in 10.0 mi WSW 13.8 mph 19.6 mph N/A   Overcast
11:24 AM 66.2 °F 60.8 °F 83% 29.96 in 10.0 mi WSW 12.7 mph - N/A   Scattered Clouds
11:53 AM 66.0 °F 60.1 °F 81% 29.97 in 10.0 mi West 10.4 mph - N/A   Overcast
12:53 PM 68.0 °F 61.0 °F 78% 29.96 in 10.0 mi West 10.4 mph - N/A   Overcast
1:53 PM 66.0 °F 62.1 °F 87% 29.98 in 4.0 mi NW 15.0 mph - 0.02 in Rain Rain
2:13 PM 66.2 °F 62.6 °F 88% 29.99 in 9.0 mi NW 10.4 mph - 0.00 in   Overcast
2:39 PM 64.4 °F 62.6 °F 94% 30.01 in 4.0 mi West 5.8 mph - 0.01 in Rain Light Rain
2:44 PM 64.4 °F 62.6 °F 94% 30.01 in 2.5 mi WNW 4.6 mph - 0.03 in Rain Rain
2:53 PM 64.9 °F 63.0 °F 93% 30.00 in 2.5 mi WNW 5.8 mph - 0.05 in Rain Light Rain
3:01 PM 64.4 °F 62.6 °F 94% 30.01 in 5.0 mi NW 8.1 mph - 0.00 in Rain Light Rain
3:25 PM 64.4 °F 62.6 °F 94% 30.02 in 9.0 mi North 5.8 mph - 0.00 in   Overcast
3:53 PM 66.0 °F 61.0 °F 84% 30.02 in 10.0 mi North 12.7 mph - 0.00 in   Overcast
4:39 PM 66.2 °F 62.6 °F 88% 30.05 in 10.0 mi North 9.2 mph - N/A   Overcast
4:53 PM 64.9 °F 61.0 °F 87% 30.05 in 10.0 mi NNE 9.2 mph - N/A   Overcast
5:53 PM 64.0 °F 57.0 °F 78% 30.09 in 10.0 mi NNE 10.4 mph - N/A   Overcast
6:53 PM 63.0 °F 57.0 °F 81% 30.11 in 10.0 mi NNE 8.1 mph - N/A   Overcast
7:53 PM 62.1 °F 55.0 °F 78% 30.13 in 10.0 mi NNE 8.1 mph - N/A   Overcast
8:53 PM 62.1 °F 55.9 °F 80% 30.17 in 10.0 mi NNE 5.8 mph - N/A   Overcast
9:53 PM 62.1 °F 55.0 °F 78% 30.19 in 10.0 mi NNE 8.1 mph - N/A   Overcast
10:16 PM 60.8 °F 53.6 °F 77% 30.20 in 10.0 mi NNE 5.8 mph - N/A   Scattered Clouds
10:53 PM 57.0 °F 53.1 °F 87% 30.20 in 10.0 mi NNE 4.6 mph - N/A   Clear
11:53 PM 53.1 °F 51.1 °F 93% 30.22 in 10.0 mi North 4.6 mph - N/A   Clear